Weather History for Wiscasset, ME

Change the Weather History Date:

Sunday, November 25, 2012

  Actual Average Record
Temperature  
Mean Temperature 30 °F -  
Max Temperature 36 °F 41 °F 57 °F (2004)
Min Temperature 24 °F 25 °F 8 °F (2000)
Degree Days  
Heating Degree Days 35    
Moisture  
Dew Point 12 °F    
Average Humidity 46    
Maximum Humidity 60    
Minimum Humidity 33    
Precipitation  
Precipitation 0.00 in - - ()
Sea Level Pressure  
Sea Level Pressure 29.65 in    
Wind  
Wind Speed 6 mph (West)    
Max Wind Speed 12 mph    
Max Gust Speed 23 mph    
Visibility 10 miles    
Events      
Averages and records for this station are not official NWS values.
T = Trace of Precipitation, MM = Missing Value Source: NWS Daily Summary

Daily Weather History Graph

Daily Weather History Graph

Search for Another Location

Airport:

Trip Planner

Search our weather history database for the weather conditions in past years. The results will help you decide how hot, cold, wet, or windy it might be!

Date:

Astronomy

Nov. 25, 2012 Rise Set
Actual Time 6:46 AM EST 4:04 PM EST
Civil Twilight 6:14 AM EST 4:36 PM EST
Nautical Twilight 5:39 AM EST 5:12 PM EST
Astronomical Twilight 5:04 AM EST 5:46 PM EST
Moon 2:23 PM EST (11/25) 3:53 AM EST (11/25)
Length of Visible Light 10h 21m
Length of Day
9h 17m
Waxing Gibbous, 93% of the Moon is Illuminated
Nov 25
Waxing Gibbous
Nov 28
Full
Dec 6
Last Quarter
Dec 13
New
Dec 20
First Quarter

Hourly Weather History & Observations

Time (EST) Temp. Windchill Dew Point Humidity Pressure Visibility Wind Dir Wind Speed Gust Speed Precip Events Conditions
12:53 AM 30.9 °F 25.2 °F 17.1 °F 57% 29.52 in 10.0 mi WSW 5.8 mph - N/A   Scattered Clouds
1:53 AM 30.9 °F 24.3 °F 17.1 °F 57% 29.55 in 10.0 mi Variable 6.9 mph 23.0 mph N/A   Partly Cloudy
2:53 AM 32.0 °F 24.2 °F 16.0 °F 52% 29.56 in 10.0 mi West 9.2 mph 19.6 mph N/A   Overcast
3:53 AM 30.9 °F 24.3 °F 14.0 °F 50% 29.56 in 10.0 mi Variable 6.9 mph 19.6 mph 0.00 in   Scattered Clouds
4:53 AM 30.9 °F 25.2 °F 14.0 °F 50% 29.58 in 10.0 mi Variable 5.8 mph - N/A   Overcast
5:53 AM 30.0 °F 24.1 °F 14.0 °F 51% 29.60 in 10.0 mi Variable 5.8 mph - N/A   Clear
6:53 AM 28.9 °F 19.2 °F 12.9 °F 51% 29.62 in 10.0 mi West 11.5 mph 18.4 mph N/A   Scattered Clouds
7:53 AM 30.0 °F 23.2 °F 12.0 °F 47% 29.64 in 10.0 mi Variable 6.9 mph - N/A   Clear
8:53 AM 32.0 °F 24.2 °F 12.0 °F 44% 29.63 in 10.0 mi West 9.2 mph - N/A   Clear
9:53 AM 32.0 °F 24.8 °F 12.0 °F 44% 29.65 in 10.0 mi West 8.1 mph 16.1 mph N/A   Partly Cloudy
10:53 AM 35.1 °F 29.3 °F 10.9 °F 37% 29.64 in 10.0 mi Variable 6.9 mph - N/A   Partly Cloudy
11:53 AM 36.0 °F 29.0 °F 10.0 °F 34% 29.62 in 10.0 mi West 9.2 mph 17.3 mph N/A   Partly Cloudy
12:53 PM 36.0 °F 29.0 °F 9.0 °F 33% 29.61 in 10.0 mi West 9.2 mph 19.6 mph N/A   Clear
1:53 PM 36.0 °F 29.0 °F 9.0 °F 33% 29.62 in 10.0 mi West 9.2 mph 20.7 mph N/A   Clear
2:53 PM 35.1 °F 28.6 °F 8.1 °F 33% 29.64 in 10.0 mi West 8.1 mph 18.4 mph N/A   Clear
3:53 PM 34.0 °F 28.8 °F 8.1 °F 34% 29.65 in 10.0 mi Variable 5.8 mph - N/A   Clear
4:53 PM 32.0 °F 28.7 °F 8.1 °F 37% 29.68 in 10.0 mi Variable 3.5 mph - N/A   Clear
5:53 PM 30.9 °F - 10.9 °F 43% 29.70 in 10.0 mi Calm Calm - N/A   Clear
6:53 PM 28.0 °F - 12.0 °F 51% 29.71 in 10.0 mi Calm Calm - N/A   Clear
7:53 PM 28.9 °F - 10.0 °F 45% 29.73 in 10.0 mi Calm Calm - N/A   Clear
8:53 PM 24.1 °F - 12.0 °F 60% 29.75 in 10.0 mi Calm Calm - N/A   Clear
9:53 PM 24.1 °F - 10.9 °F 57% 29.76 in 10.0 mi Calm Calm - N/A   Clear
10:53 PM 24.1 °F - 10.9 °F 57% 29.78 in 10.0 mi Calm Calm - N/A   Clear
11:53 PM 27.0 °F 23.0 °F 10.0 °F 49% 29.78 in 10.0 mi West 3.5 mph - N/A   Clear